STARLINK-4268 (53183 NORAD) Tracking and Keplerian Element Data

This shows tracking and keplerian element data for the satellite.

Feedback or suggestion? Click here.




ElementValue
Catalog53183
NameSTARLINK-4268
Epoch Orbit1193
Epoch Day270.25001157
Epoch Year2022
RAAN52.1804
Inclination53.2144
Eccentricity0.000413
Argument of Perigee349.1861
Mean Anonmoly129.2081
Mean Motion15.73116047
Decay Rate0.00102624
L11 53183U 22083BD 22270.25001157 .00102624 00000+0 72908-3 0 9992
L22 53183 53.2144 52.1804 0004130 349.1861 129.2081 15.73116047 11933

Live tracking and technical data element details for STARLINK-4268 (NORAD 53183). STARLINK-4268 can be tracked NOW for your location showing map with azimuth and elevation plus other details from your city location.

Track the satellite on the map from your city or location and see movement details for azimuth, elevation, latitude, longitude, range, height, and movement on the map or in text.







IsCatalogInMostPopularTable: catalog: 53183, numindb: 7
Update: records affected: 1



GetName: 53183 STARLINK-4268

Hit Count: updated at: Thu, 29 Sep 2022 12:17:58 GMT